Skip Page Navigation
NASA JPL Caltech
NASA Logo - Jet Propulsion Laboratory + View the NASA Portal
+ Center for Near-Earth Object Studies
JPL Home Earth Solar System Stars & Galaxies Technology
JPL Solar System Dynamics
BODIES ORBITS EPHEMERIDES TOOLS PHYSICAL DATA DISCOVERY FAQ SITE MAP
IMPORTANT: The SSD Announcement email list is now available. Major changes are coming in the near future, including possible hostname and/or URL changes. To be notified of such changes, subscribe to this email list.

Please visit this page for more details.


JPL Small-Body Database Browser
Search: [ help ]  
47 Aglaja
Classification: Main-belt Asteroid          SPK-ID: 2000047
Ephemeris | Orbit Diagram | Orbital Elements | Mission Design | Physical Parameters | Discovery Circumstances ]

[ show orbit diagram ]
Orbital Elements at Epoch 2458600.5 (2019-Apr-27.0) TDB
Reference: JPL 109 (heliocentric ecliptic J2000)
 Element Value Uncertainty (1-sigma)   Units 
e .1298072673973523 3.124e-08  
a 2.881429414958211 7.2993e-09 au
q 2.507398936404134 9.0882e-08 au
i 4.975207886359049 4.0839e-06 deg
node 3.081372987369584 3.9884e-05 deg
peri 314.6872969046004 4.2994e-05 deg
M 52.27884523259156 1.6438e-05 deg
tp 2458341.061819326817
(2018-Aug-10.56181933)
8.138e-05 TDB
period 1786.530376231803
4.89
6.7885e-06
1.859e-08
d
yr
n .2015079087316285 7.657e-10 deg/d
Q 3.255459893512288 8.2468e-09 au
  Orbit Determination Parameters
   # obs. used (total)      2833  
   data-arc span      58251 days (159.48 yr)  
   first obs. used      1860-02-24  
   last obs. used      2019-08-20  
   planetary ephem.      DE431  
   SB-pert. ephem.      SB431-N16  
   condition code      0  
   norm. resid. RMS      .48728  
   source      ORB  
   producer      Otto Matic  
   solution date      2019-Sep-23 19:04:26  

Additional Information
 Earth MOID = 1.49661 au 
 Jupiter MOID = 2.04817 au 
 T_jup = 3.276 
[ show covariance matrix ]

Ephemeris | Orbit Diagram | Orbital Elements | Mission Design | Physical Parameters | Discovery Circumstances ]

Physical Parameter Table
Parameter Symbol Value Units Sigma Reference Notes
absolute magnitude H 7.84   n/a IRAS-A-FPA-3-RDR-IMPS-V6.0 IRAS observations used: 20
magnitude slope G 0.16   n/a PDS3 (MPC 17257) Fit
diameter diameter 168.174 km 1.222 urn:nasa:pds:neowise_diameters_albedos::2.0[mainbelt] (http://adsabs.harvard.edu/abs/2012ApJ...759L...8M)  
rotation period rot_per 13.178 h n/a LCDB (Rev. 2019-January); Warner et al., 2009 Published Reference List:
[Debehogne, H. (1979) Messenger 18, 27-28.]
[Harris, A.W.; Young, J.W. (1989) Icarus 81, 314-364.]
[Millis, R.L.; Wasserman, L.H.; Bowell, E.; Harris, A.W.; et al. (1989) Icarus 81, 375-385.]
[Chernova, G.P.; Lupishko, D.F.; Shevchenko, V.G.; Kiselev, N.N.; Saljes, R. (1991) Kin. Fiz. Neb. Tel 7, 20-26; Kinematics and Physics of Celestial Bodies 7, 15-21.]
[Michalowski, T. (1996) Icarus 123, 456-462.]
[Pilcher, F. (2012) Minor Planet Bull. 39, 220-222.]
geometric albedo albedo 0.082   0.005 urn:nasa:pds:neowise_diameters_albedos::2.0[mainbelt] (http://adsabs.harvard.edu/abs/2014ApJ...791..121M)  
B-V BV 0.665   0.015 EAR-A-5-DDR-UBV-MEAN-VALUES-V1.2 #obs=3; phase (min.=7.07, mean=12.75, max.=18.61) deg.
U-B UB 0.300   0.016 EAR-A-5-DDR-UBV-MEAN-VALUES-V1.2 #obs=3; phase (min.=7.07, mean=12.75, max.=18.61) deg.
Tholen spectral type spec_T C   n/a EAR-A-5-DDR-TAXONOMY-V4.0 used 7 color indices; used ground-based radiometric albedo
SMASSII spectral type spec_B B   n/a EAR-A-5-DDR-TAXONOMY-V4.0 based on a high-resolution spectrum by Xu et al. (1995) or Bus and Binzel (2002)

47 Aglaja          Discovered 1857-Sep-15 by Luther, R. at Dusseldorf
Reference: DISCOVERY.DBLast Updated: 2003-08-29

Alternate Designations
 1948 EU = 1982 DX2 
Ephemeris | Orbit Diagram | Orbital Elements | Mission Design | Physical Parameters | Discovery Circumstances ]
ABOUT SSD CREDITS/AWARDS PRIVACY/COPYRIGHT GLOSSARY LINKS
FirstGov 2019-Oct-19 03:45 UT
(server date/time)  
NASA Home Page
Site Manager:   Ryan S. Park
Webmaster  Alan B. Chamberlin